Regional Weather Roundup
Issued by NWS

Home | Current Version | Previous Version | Graphics & Text | Print | Product List | Glossary On
Versions: 1 2 3 4 5 6 7 8 9 10 11 12 13 14 15 16 17 18 19 20 21 22 23 24 25 26 27 28 29 30 31 32 33 34 35 36 37 38 39 40 41 42 43 44 45 46 47 48 49 50
000
ASUS43 KBIS 030510
RWRND

NORTH DAKOTA REGIONAL WEATHER ROUNDUP
NATIONAL WEATHER SERVICE BISMARCK ND
1100 PM CST FRI DEC 02 2016

NOTE: "FAIR" INDICATES FEW OR NO CLOUDS BELOW 12,000 FEET WITH NO
SIGNIFICANT WEATHER AND/OR OBSTRUCTIONS TO VISIBILITY.


NDZ001>003-009>011-017-030600-
NORTHWEST NORTH DAKOTA

CITY           SKY/WX    TMP DP  RH WIND       PRES   REMARKS
WILLISTON      CLEAR     24  21  88 S5        30.03F WCI  18
MINOT          CLOUDY    29  25  85 SE7       30.09F
MINOT AFB      CLOUDY    28  25  90 S10       30.09F WCI  18
$$

NDZ018>021-031>035-040>046-030600-
SOUTHWEST NORTH DAKOTA

CITY           SKY/WX    TMP DP  RH WIND       PRES   REMARKS
BISMARCK       CLOUDY    25  23  92 S7        30.18F WCI  17
DICKINSON      CLEAR     18  16  92 S12       30.06F WCI   5
GARRISON         N/A     28  25  88 S9        30.11F WCI  19
HETTINGER ARPT CLEAR     21  20  96 SE7       30.12F WCI  12
$$

NDZ004>008-012>016-024-026-027-054-030600-
NORTHEAST NORTH DAKOTA

CITY           SKY/WX    TMP DP  RH WIND       PRES   REMARKS
GRAND FORKS    CLOUDY    31  22  69 S7        30.25S
GRND FRKS AFB  CLOUDY    30  20  65 SW7       30.24F
$$

NDZ022-023-025-028>030-036>039-047>053-030600-
SOUTHEAST NORTH DAKOTA

CITY           SKY/WX    TMP DP  RH WIND       PRES   REMARKS
FARGO          CLOUDY    28  19  69 SW5       30.29S
JAMESTOWN      CLOUDY    22  18  85 S7        30.22F WCI  13
$$





USA.gov is the U.S. government's official web portal to all federal, state and local government web resources and services.